Regional Weather Roundup
Issued by NWS

Home | Current Version | Previous Version | Graphics & Text | Print | Product List | Glossary On
Versions: 1 2 3 4 5 6 7 8 9 10 11 12 13 14 15 16 17 18 19 20 21 22 23 24 25 26 27 28 29 30 31 32 33 34 35 36 37 38 39 40 41 42 43 44 45 46 47 48 49 50
000
ASUS43 KBIS 301520
RWRND

NORTH DAKOTA REGIONAL WEATHER ROUNDUP
NATIONAL WEATHER SERVICE BISMARCK ND
900 AM CST FRI JAN 30 2015

NOTE: "FAIR" INDICATES FEW OR NO CLOUDS BELOW 12,000 FEET WITH NO
SIGNIFICANT WEATHER AND/OR OBSTRUCTIONS TO VISIBILITY.


NDZ001>003-009>011-017-301600-
NORTHWEST NORTH DAKOTA

CITY           SKY/WX    TMP DP  RH WIND       PRES   REMARKS
WILLISTON      CLEAR     21  17  84 CALM      30.17R
MINOT          CLEAR     23  16  74 SW13      30.12R WCI  11
MINOT AFB      CLEAR     20  20  98 W3        30.13R
$$

NDZ018>021-031>035-040>046-301600-
SOUTHWEST NORTH DAKOTA

CITY           SKY/WX    TMP DP  RH WIND       PRES   REMARKS
BISMARCK       CLEAR     19  17  92 SE3       30.20F
DICKINSON      CLEAR     27  20  75 W9        30.12R WCI  18
GARRISON         N/A     18  16  92 CALM      30.14S
HETTINGER ARPT CLEAR     23  16  74 W3        30.17R
$$

NDZ004>008-012>016-024-026-027-054-301600-
NORTHEAST NORTH DAKOTA

CITY           SKY/WX    TMP DP  RH WIND       PRES   REMARKS
GRAND FORKS    CLOUDY    13   7  77 S16       30.33F WCI  -3
GRND FRKS AFB  CLOUDY    12   7  78 S14       30.31F WCI  -3
DEVILS LAKE    CLOUDY    19  18  93 S12       30.18S WCI   7
$$

NDZ022-023-025-028>030-036>039-047>053-301600-
SOUTHEAST NORTH DAKOTA

CITY           SKY/WX    TMP DP  RH WIND       PRES   REMARKS
FARGO          MOCLDY    13   6  74 SE14      30.38F WCI  -2
JAMESTOWN      MOCLDY    19  16  88 S18       30.22F WCI   4
$$



USA.gov is the U.S. government's official web portal to all federal, state and local government web resources and services.